Change the Weather History Date:

Saturday, April 26, 2014

  Actual Average Record
Temperature  
Mean Temperature 35 °F 46 °F  
Max Temperature 50 °F 60 °F 83 °F (1987)
Min Temperature 19 °F 32 °F 19 °F (2014)
Degree Days  
Heating Degree Days 30 19  
Month to date heating degree days 518 583  
Since 1 July heating degree days 6015 6245  
Cooling Degree Days 0 0  
Month to date cooling degree days 0 0  
Year to date cooling degree days 0 0  
Moisture  
Dew Point 23 °F    
Average Humidity 62    
Maximum Humidity 92    
Minimum Humidity 26    
Precipitation  
Precipitation T in 0.07 in 0.60 in (1932)
Month to date precipitation 0.19 1.13  
Year to date precipitation 4.78 6.17  
Sea Level Pressure  
Sea Level Pressure 29.84 in    
Wind  
Wind Speed 7 mph (West)    
Max Wind Speed 22 mph    
Max Gust Speed 31 mph    
Visibility 10 miles    
Events Rain    
T = Trace of Precipitation, MM = Missing Value Source: NWS Daily Summary

Daily Weather History Graph

Daily Weather History Graph

Search for Another Location

Airport or City:

Trip Planner

Search our weather history database for the weather conditions in past years. The results will help you decide how hot, cold, wet, or windy it might be!

Date:

Astronomy

Apr. 26, 2014 Rise Set
Actual Time 6:09 AM PDT 8:00 PM PDT
Civil Twilight 5:39 AM PDT 8:30 PM PDT
Nautical Twilight 5:02 AM PDT 9:07 PM PDT
Astronomical Twilight 4:23 AM PDT 9:47 PM PDT
Moon 4:39 AM PDT (4/26) 5:32 PM PDT (4/26)
Length of Visible Light 14h 51m
Length of Day
13h 51m
Waning Crescent, 7% of the Moon is Illuminated
Apr 26
Waning Crescent
Apr 28
New
May 6
First Quarter
May 14
Full
May 21
Last Quarter

Hourly Weather History & Observations

Time (PDT) Temp. Windchill Dew Point Humidity Pressure Visibility Wind Dir Wind Speed Gust Speed Precip Events Conditions
12:53 AM 28.0 °F - 21.9 °F 78% 29.82 in 10.0 mi Calm Calm - N/A   Clear
1:53 AM 26.1 °F 21.9 °F 21.9 °F 84% 29.83 in 10.0 mi West 3.5 mph - N/A   Clear
2:53 AM 25.0 °F - 21.0 °F 85% 29.82 in 10.0 mi Calm Calm - N/A   Clear
3:53 AM 21.9 °F - 19.0 °F 89% 29.83 in 10.0 mi Calm Calm - N/A   Partly Cloudy
4:53 AM 23.0 °F - 19.9 °F 88% 29.83 in 10.0 mi Calm Calm - N/A   Clear
5:53 AM 23.0 °F - 19.9 °F 88% 29.83 in 10.0 mi Calm Calm - N/A   Clear
6:53 AM 23.0 °F - 19.9 °F 88% 29.85 in 10.0 mi Calm Calm - N/A   Clear
7:53 AM 30.9 °F - 28.0 °F 89% 29.86 in 10.0 mi Calm Calm - N/A   Clear
8:53 AM 34.0 °F 29.8 °F 27.0 °F 75% 29.86 in 10.0 mi WSW 4.6 mph - N/A   Clear
9:53 AM 39.0 °F 34.0 °F 25.0 °F 57% 29.86 in 10.0 mi WSW 6.9 mph - N/A   Partly Cloudy
11:53 AM 44.1 °F 39.0 °F 21.0 °F 40% 29.84 in 10.0 mi West 9.2 mph 20.7 mph N/A   Partly Cloudy
12:53 PM 46.0 °F 39.6 °F 19.0 °F 34% 29.84 in 10.0 mi West 15.0 mph 24.2 mph N/A   Clear
1:53 PM 48.0 °F - 16.0 °F 28% 29.83 in 10.0 mi West 18.4 mph - N/A   Partly Cloudy
2:53 PM 48.9 °F - 21.0 °F 33% 29.84 in 10.0 mi West 13.8 mph 21.9 mph N/A   Mostly Cloudy
3:53 PM 48.9 °F - 21.0 °F 33% 29.83 in 10.0 mi West 17.3 mph 25.3 mph N/A   Clear
4:53 PM 48.0 °F - 21.0 °F 34% 29.84 in 10.0 mi West 15.0 mph - N/A   Overcast
5:53 PM 46.9 °F - 21.9 °F 37% 29.84 in 10.0 mi West 16.1 mph - N/A   Overcast
6:53 PM 46.0 °F 40.2 °F 24.1 °F 42% 29.83 in 10.0 mi WSW 12.7 mph - N/A   Overcast
7:53 PM 44.1 °F 37.1 °F 24.1 °F 45% 29.83 in 10.0 mi WSW 15.0 mph - N/A   Overcast
8:53 PM 42.1 °F 35.7 °F 27.0 °F 55% 29.84 in 10.0 mi WSW 11.5 mph - N/A   Overcast
9:53 PM 41.0 °F 35.8 °F 28.9 °F 62% 29.85 in 10.0 mi SW 8.1 mph - 0.00 in Rain Light Rain
10:53 PM 37.9 °F 32.7 °F 33.1 °F 83% 29.85 in 10.0 mi WNW 6.9 mph - 0.00 in Rain Light Rain
11:53 PM 37.9 °F - 33.1 °F 83% 29.84 in 10.0 mi Calm Calm - 0.00 in   Overcast